Weather History for College Park, MD

Change the Weather History Date:

Wednesday, December 5, 2012

  Actual Average Record
Temperature  
Mean Temperature 53 °F -  
Max Temperature 64 °F 49 °F 75 °F (1982)
Min Temperature 40 °F 31 °F 17 °F (1966)
Degree Days  
Heating Degree Days 12    
Growing Degree Days 3 (Base 50)    
Moisture  
Dew Point 39 °F    
Average Humidity 54    
Maximum Humidity 85    
Minimum Humidity 36    
Precipitation  
Precipitation 0.00 in - - ()
Sea Level Pressure  
Sea Level Pressure 30.14 in    
Wind  
Wind Speed 7 mph (NW)    
Max Wind Speed 15 mph    
Max Gust Speed 22 mph    
Visibility 10 miles    
Events      
Averages and records for this station are not official NWS values.
T = Trace of Precipitation, MM = Missing Value Source: NWS Daily Summary

Daily Weather History Graph

Daily Weather History Graph

Search for Another Location

Airport:

Trip Planner

Search our weather history database for the weather conditions in past years. The results will help you decide how hot, cold, wet, or windy it might be!

Date:

Astronomy

Dec. 05, 2012 Rise Set
Actual Time 7:11 AM EST 4:45 PM EST
Civil Twilight 6:42 AM EST 5:14 PM EST
Nautical Twilight 6:08 AM EST 5:48 PM EST
Astronomical Twilight 5:36 AM EST 6:20 PM EST
Moon 11:30 PM EST (12/5) 11:36 AM EST (12/5)
Length of Visible Light 10h 32m
Length of Day
9h 33m
Waning Gibbous, 60% of the Moon is Illuminated
Dec 5
Waning Gibbous
Dec 6
Last Quarter
Dec 13
New
Dec 20
First Quarter
Dec 28
Full

Hourly Weather History & Observations

Time (EST) Temp. Windchill Dew Point Humidity Pressure Visibility Wind Dir Wind Speed Gust Speed Precip Events Conditions
12:00 AM 65.5 °F - 51.4 °F 60% 30.02 in 10.0 mi South 6.9 mph - N/A   Overcast
12:20 AM 65.3 °F - 51.3 °F 60% 30.01 in 10.0 mi South 4.6 mph - N/A   Overcast
12:45 AM 64.6 °F - 51.1 °F 62% 30.00 in 10.0 mi South 4.6 mph - N/A   Scattered Clouds
1:05 AM 64.0 °F - 50.9 °F 62% 30.00 in 10.0 mi Calm Calm - N/A   Scattered Clouds
1:25 AM 64.0 °F - 51.1 °F 63% 30.00 in 10.0 mi South 3.5 mph - N/A   Mostly Cloudy
1:50 AM 63.1 °F - 51.3 °F 65% 30.00 in 10.0 mi Calm Calm - N/A   Clear
2:10 AM 62.8 °F - 51.4 °F 66% 29.99 in 10.0 mi South 4.6 mph - N/A   Clear
2:30 AM 62.6 °F - 51.4 °F 67% 30.00 in 10.0 mi Calm Calm - N/A   Clear
2:50 AM 62.1 °F - 51.4 °F 68% 30.00 in 10.0 mi Calm Calm - N/A   Clear
3:15 AM 59.2 °F - 50.9 °F 74% 30.00 in 10.0 mi Calm Calm - N/A   Clear
3:35 AM 55.4 °F - 50.9 °F 85% 30.02 in 10.0 mi Calm Calm - N/A   Scattered Clouds
3:55 AM 55.8 °F - 51.1 °F 84% 30.02 in 10.0 mi Calm Calm - N/A   Scattered Clouds
4:15 AM 60.8 °F - 51.8 °F 72% 30.02 in 10.0 mi WNW 6.9 mph - N/A   Scattered Clouds
4:40 AM 62.6 °F - 50.5 °F 65% 30.03 in 10.0 mi NW 15.0 mph 21.9 mph N/A   Overcast
5:00 AM 61.7 °F - 49.5 °F 64% 30.05 in 10.0 mi NW 8.1 mph - N/A   Overcast
5:20 AM 61.0 °F - 48.4 °F 63% 30.05 in 10.0 mi NNW 9.2 mph 16.1 mph N/A   Overcast
5:40 AM 60.6 °F - 47.7 °F 62% 30.07 in 10.0 mi NW 6.9 mph 16.1 mph N/A   Overcast
6:05 AM 60.1 °F - 47.1 °F 62% 30.07 in 10.0 mi NW 10.4 mph - N/A   Overcast
6:25 AM 59.4 °F - 47.8 °F 66% 30.09 in 10.0 mi West 6.9 mph - N/A   Overcast
9:35 AM 55.4 °F - 36.7 °F 49% 30.16 in 10.0 mi NW 11.5 mph - N/A   Mostly Cloudy
9:55 AM 55.8 °F - 36.0 °F 47% 30.16 in 10.0 mi NW 11.5 mph 18.4 mph N/A   Clear
10:20 AM 55.6 °F - 35.8 °F 47% 30.16 in 10.0 mi WNW 15.0 mph 19.6 mph N/A   Clear
10:40 AM 55.8 °F - 35.8 °F 47% 30.16 in 10.0 mi NW 10.4 mph 20.7 mph N/A   Clear
11:00 AM 56.5 °F - 36.3 °F 47% 30.15 in 10.0 mi WNW 8.1 mph - N/A   Clear
11:20 AM 56.7 °F - 35.2 °F 45% 30.16 in 10.0 mi WNW 10.4 mph 17.3 mph N/A   Clear
11:45 AM 56.1 °F - 34.5 °F 44% 30.16 in 10.0 mi WNW 9.2 mph 20.7 mph N/A   Clear
12:05 PM 56.5 °F - 35.8 °F 46% 30.15 in 10.0 mi WNW 8.1 mph - N/A   Clear
12:25 PM 57.2 °F - 35.8 °F 45% 30.14 in 10.0 mi NW 8.1 mph - N/A   Clear
12:45 PM 58.3 °F - 34.9 °F 41% 30.13 in 10.0 mi WNW 10.4 mph 21.9 mph N/A   Clear
1:10 PM 59.2 °F - 35.1 °F 40% 30.12 in 10.0 mi WNW 12.7 mph 21.9 mph N/A   Clear
2:10 PM 60.3 °F - 34.3 °F 38% 30.12 in 10.0 mi WNW 10.4 mph 17.3 mph N/A   Clear
2:35 PM 60.8 °F - 33.4 °F 36% 30.12 in 10.0 mi NW 12.7 mph - N/A   Clear
3:35 PM 59.4 °F - 33.3 °F 37% 30.14 in 10.0 mi NW 10.4 mph - N/A   Clear
4:00 PM 58.3 °F - 32.7 °F 38% 30.15 in 10.0 mi NW 9.2 mph 19.6 mph N/A   Clear
4:20 PM 57.0 °F - 32.0 °F 39% 30.15 in 10.0 mi NNW 10.4 mph - N/A   Clear
5:00 PM 54.7 °F - 32.0 °F 42% 30.17 in 10.0 mi NW 15.0 mph 19.6 mph N/A   Clear
5:25 PM 54.0 °F - 30.9 °F 41% 30.19 in 10.0 mi NNW 10.4 mph 16.1 mph N/A   Clear
5:45 PM 52.7 °F - 32.0 °F 45% 30.20 in 10.0 mi NNW 9.2 mph 16.1 mph N/A   Clear
6:05 PM 51.6 °F - 32.0 °F 47% 30.22 in 10.0 mi NNW 13.8 mph 18.4 mph N/A   Clear
6:25 PM 50.5 °F - 31.1 °F 47% 30.23 in 10.0 mi NNW 10.4 mph 18.4 mph N/A   Clear
6:50 PM 49.6 °F - 30.4 °F 48% 30.24 in 10.0 mi NW 10.4 mph 17.3 mph N/A   Clear
7:10 PM 48.4 °F - 30.7 °F 51% 30.25 in 10.0 mi NW 11.5 mph - N/A   Clear
7:50 PM 47.7 °F - 30.4 °F 51% 30.27 in 10.0 mi NW 6.9 mph - N/A   Clear
8:10 PM 47.5 °F - 30.2 °F 51% 30.28 in 10.0 mi NNW 6.9 mph - N/A   Clear
8:55 PM 46.0 °F 41.4 °F 30.0 °F 54% 30.29 in 10.0 mi North 9.2 mph 17.3 mph N/A   Clear
9:15 PM 45.0 °F 41.2 °F 30.0 °F 56% 30.30 in 10.0 mi NNW 6.9 mph - N/A   Clear
9:40 PM 44.2 °F 39.7 °F 28.4 °F 54% 30.30 in 10.0 mi NNW 8.1 mph - N/A   Clear
10:00 PM 43.7 °F 38.1 °F 27.7 °F 53% 30.31 in 10.0 mi NNW 10.4 mph 16.1 mph N/A   Clear
10:20 PM 43.2 °F 38.4 °F 27.3 °F 54% 30.31 in 10.0 mi North 8.1 mph - N/A   Clear
11:05 PM 41.7 °F 38.0 °F 27.3 °F 57% 30.31 in 10.0 mi NW 5.8 mph - N/A   Clear
11:25 PM 41.0 °F 38.0 °F 27.3 °F 58% 30.31 in 10.0 mi NNW 4.6 mph - N/A   Clear
11:45 PM 40.3 °F 38.2 °F 27.3 °F 60% 30.31 in 10.0 mi North 3.5 mph - N/A   Clear